Location: Unspecified
(49.2170°N, 0.0000°E)
Time: 02:24:15
(UTC+00:00)

Vanguard 3 - Pass Details

Date: 30 June 2019
Orbit: 507 x 3264 km, 33.4° (Epoch: 17 July)

Event Time Altitude Azimuth Distance (km) Brightness Sun altitude
Rises 10:50:42 0° 250° (WSW) 7,004 11.8 60.3°
Reaches altitude 10° 10:56:15 10° 244° (WSW) 5,713 11.6 60.8°
Maximum altitude 11:10:19 38° 186° (S) 2,935 11.2 61.9°
Drops below altitude 10° 11:19:13 10° 123° (ESE) 3,636 11.0 62.5°
Sets 11:21:55 0° 114° (ESE) 4,292 11.1 62.7°
